Location: Atbuku
(36.4936°N, 30.4362°E)
Time: 21:19:12
(UTC+00:00)

Cosmos 1898 Rocket - Pass Details

Date: 11 December 2025
Orbit: 749 x 779 km, 74.0° (Epoch: 12 January)

Event Time Altitude Azimuth Distance (km) Brightness Sun altitude
Rises 16:39:24 0° 210° (SSW) 3,180 7.3 -22.7°
Reaches altitude 10° 16:41:49 10° 215° (SW) 2,260 6.5 -23.2°
Maximum altitude 16:46:46 50° 291° (WNW) 948 4.2 -24.1°
Enters shadow 16:50:06 20° 359° (N) 1,675 5.1 -24.8°
